Location: San Gennaro Vesuviano
(40.8833°N, 14.5333°E)
Time: 22:07:32
(UTC+00:00)

FALCON 9 DEB - Pass Details

Date: 22 April 2021
Orbit: 369 x 385 km, 53.0° (Epoch: 10 May)

Event Time Altitude Azimuth Distance (km) Brightness Sun altitude
Rises 19:40:13 0° 250° (WSW) 2,209 7.2 -19.4°
Reaches altitude 10° 19:42:21 10° 260° (W) 1,363 6.2 -19.8°
Maximum altitude 19:45:10 34° 328° (NNW) 633 4.5 -20.2°
Enters shadow 19:47:18 15° 30° (NNE) 1,114 5.3 -20.5°
